Location: Boda
(47.1872°N, 9.5454°E)
Time: 08:20:17
(UTC+00:00)

SL-16 R/B - Pass Details

Date: 14 May 2021
Orbit: 985 x 1007 km, 99.5° (Epoch: 16 June)

Event Time Altitude Azimuth Distance (km) Brightness Sun altitude
Exits shadow 01:00:15 25° 164° (SSE) 1,907 3.6 -20.3°
Maximum altitude 01:04:09 88° 252° (WSW) 1,014 2.5 -20.0°
Drops below altitude 10° 01:10:27 10° 344° (NNW) 2,789 5.5 -19.5°
Sets 01:12:56 0° 345° (NNW) 3,740 6.3 -19.3°
